Find Starlink 30859

NORAD ID: 58371 Int'l Des: 2023-177 Owner: SPXS Country: US Constellation: starlink operational
LEOCIRCULAR

現在のビュー

3D地球を読み込み中...

About Starlink 30859

Starlink 30859 (NORAD 58371) is a starlink constellation satellite (v2 mini) launched Nov 18, 2023 by SPXS of US. It operates in LEO, CIRCULAR orbit with a mass of 730.00 kg.

Starlink 30859について

説明を読み込み中...

次回通過

Passes for default location (London). Set your location on the main map for personalized predictions.

高度履歴

Loading altitude history...

軌道要素

1 58371U 23177W 26171.28416582 -.00000284 00000-0 -80717-6 0 9992
2 58371 43.0036 131.5357 0001510 264.4877 95.5803 15.27568650143926
Epoch: Jun 20, 2026 • Age: 50 hours

現在のステータス

高度 482.6 km
速度 7.63 km/s
衛星直下点 1.09°N, 74.65°E
打ち上げ日 Nov 18, 2023
運用期間 2.5 years
タイプ internet

技術仕様

分類 Payload
質量 730.00 kg
乾燥質量 700.00 kg
総質量 730.00 kg
長さ 0.30 m
直径 4.10 m
スパン 29.00 m
形状 Box + pan
製造者 SPXS
バスタイプ Starlink V2M
フェーズステータス In Orbit
所有者/国 SPXS/US

Most Searched